Location: Sankt Anna
(58.3452°N, 16.7040°E)
Time: 03:03:11
(UTC+02:00)

Envisat - Visible Passes

Search period start: 23 October 2019 00:00
Search period end: 01 November 2019 23:00
Orbit: 764 x 766 km, 98.1° (Epoch: 22 October)

Date Brightness Start Highest point End Pass type
(mag) Time Alt. Az. Time Alt. Az. Time Alt. Az.
23 Oct 6.2 06:21:38 10° NE 06:24:30 15° E 06:27:21 10° ESE visible
23 Oct 4.4 19:23:23 10° SSW 19:28:12 42° W 19:33:03 10° NNW visible
24 Oct 3.3 18:46:10 10° S 18:51:15 74° WSW 18:56:23 10° NNW visible
24 Oct 5.9 20:28:04 10° WSW 20:31:13 16° W 20:34:22 10° NW visible
25 Oct 5.9 06:46:26 10° NE 06:50:23 22° E 06:54:20 10° SE visible
25 Oct 3.0 18:09:27 10° SSE 18:14:29 65° ENE 18:19:33 10° NNW visible
25 Oct 5.1 19:49:34 10° SSW 19:53:56 28° W 19:58:19 10° NNW visible
26 Oct 6.3 06:10:54 10° NE 06:13:02 12° E 06:15:09 10° ESE visible
26 Oct 4.0 19:11:56 10° S 19:16:52 49° W 19:21:50 10° NNW visible
26 Oct 6.3 20:56:11 10° W 20:57:10 10° WNW 20:58:10 10° WNW visible
27 Oct 5.1 06:11:36 10° NNE 06:16:11 32° E 06:20:45 10° SSE visible
27 Oct 3.1 17:34:52 10° SSE 17:39:58 86° WSW 17:45:06 10° NNW visible
27 Oct 5.7 19:16:10 10° SW 19:19:46 19° W 19:23:24 10° NW visible
28 Oct 6.0 05:35:24 10° NE 05:38:58 19° E 05:42:32 10° SE visible
28 Oct 3.1 16:58:17 10° SE 17:03:15 56° ENE 17:08:14 10° N visible
28 Oct 4.8 18:37:58 10° SSW 18:42:33 33° W 18:47:10 10° NNW visible
29 Oct 6.6 05:00:52 10° ENE 05:01:33 10° ENE 05:02:14 10° E visible
29 Oct 3.7 18:00:31 10° S 18:05:32 58° WSW 18:10:36 10° NNW visible
29 Oct 6.1 19:43:28 10° WSW 19:45:42 13° W 19:47:57 10° NW visible
30 Oct 5.4 06:00:27 10° NNE 06:04:49 28° E 06:09:09 10° SSE visible
30 Oct 3.0 17:23:36 10° SSE 17:28:42 81° ENE 17:33:49 10° NNW visible
30 Oct 5.4 19:04:23 10° SW 19:08:21 23° W 19:12:21 10° NW visible
31 Oct 6.1 05:24:26 10° NE 05:27:32 16° E 05:30:37 10° ESE visible
31 Oct 3.2 16:47:09 10° SE 16:52:01 48° ENE 16:56:55 10° N visible
31 Oct 4.4 18:26:27 10° SSW 18:31:12 39° W 18:35:59 10° NNW visible
01 Nov 4.6 06:25:43 10° NNE 06:30:33 41° E 06:35:21 10° SSE visible
01 Nov 3.3 17:49:10 10° S 17:54:14 69° WSW 17:59:21 10° NNW visible
01 Nov 6.0 19:31:18 10° WSW 19:34:14 15° W 19:37:11 10° NW visible
